Time,TemperatureF,DewpointF,PressureIn,WindDirection,WindDirectionDegrees,WindSpeedMPH,WindSpeedGustMPH,Humidity,HourlyPrecipIn,Conditions,Clouds,dailyrainin,SolarRadiationWatts/m^2,SoftwareType,DateUTC
2013-02-07 00:09:00,31.1,28.0,30.12,ENE,77,0.0,-999.0,89,-99.99,,,0.00,0,weatherlink.com 1.10,2013-02-07 00:09:00,
2013-02-07 00:25:00,32.0,30.0,30.12,NNE,14,0.0,-999.0,92,-99.99,,,0.00,0,weatherlink.com 1.10,2013-02-07 00:25:00,
2013-02-07 00:39:00,31.8,29.0,30.11,NNE,14,0.0,-999.0,90,-99.99,,,0.00,0,weatherlink.com 1.10,2013-02-07 00:39:00,
2013-02-07 00:54:00,32.1,30.0,30.11,NNE,14,0.0,-999.0,91,-99.99,,,0.00,0,weatherlink.com 1.10,2013-02-07 00:54:00,
2013-02-07 01:10:00,33.2,31.0,30.11,NNE,14,0.0,-999.0,90,-99.99,,,0.00,0,weatherlink.com 1.10,2013-02-07 01:10:00,
2013-02-07 01:25:00,32.9,30.0,30.11,NNE,16,0.0,-999.0,90,-99.99,,,0.00,0,weatherlink.com 1.10,2013-02-07 01:25:00,
2013-02-07 01:40:00,32.6,30.0,30.10,NNE,32,0.0,-999.0,90,-99.99,,,0.00,0,weatherlink.com 1.10,2013-02-07 01:40:00,
2013-02-07 01:55:00,33.9,31.0,30.10,NNE,32,0.0,-999.0,90,-99.99,,,0.00,0,weatherlink.com 1.10,2013-02-07 01:55:00,
2013-02-07 02:10:00,34.5,32.0,30.09,WNW,290,5.0,-999.0,89,-99.99,,,0.00,0,weatherlink.com 1.10,2013-02-07 02:10:00,
2013-02-07 02:25:00,36.1,33.0,30.09,NNW,336,6.0,-999.0,87,-99.99,,,0.00,0,weatherlink.com 1.10,2013-02-07 02:25:00,
2013-02-07 02:40:00,37.2,33.0,30.08,WNW,296,8.0,-999.0,83,-99.99,,,0.00,0,weatherlink.com 1.10,2013-02-07 02:40:00,
2013-02-07 02:55:00,37.2,33.0,30.08,NW,321,2.0,-999.0,83,-99.99,,,0.00,0,weatherlink.com 1.10,2013-02-07 02:55:00,
2013-02-07 03:10:00,37.4,33.0,30.07,NW,311,3.0,-999.0,83,-99.99,,,0.00,0,weatherlink.com 1.10,2013-02-07 03:10:00,
2013-02-07 03:25:00,37.5,33.0,30.07,West,280,9.0,-999.0,83,-99.99,,,0.00,0,weatherlink.com 1.10,2013-02-07 03:25:00,
2013-02-07 03:40:00,37.4,33.0,30.07,WNW,298,9.0,-999.0,84,-99.99,,,0.00,0,weatherlink.com 1.10,2013-02-07 03:40:00,
2013-02-07 03:55:00,37.6,34.0,30.07,WNW,299,12.0,-999.0,85,-99.99,,,0.00,0,weatherlink.com 1.10,2013-02-07 03:55:00,
2013-02-07 04:10:00,37.7,34.0,30.06,West,273,7.0,-999.0,85,-99.99,,,0.00,0,weatherlink.com 1.10,2013-02-07 04:10:00,
2013-02-07 04:25:00,37.5,34.0,30.06,West,281,6.0,-999.0,86,-99.99,,,0.00,0,weatherlink.com 1.10,2013-02-07 04:25:00,
2013-02-07 04:40:00,37.3,34.0,30.05,West,271,6.0,-999.0,87,-99.99,,,0.00,0,weatherlink.com 1.10,2013-02-07 04:40:00,
2013-02-07 04:55:00,37.4,34.0,30.05,WNW,290,2.0,-999.0,86,-99.99,,,0.00,0,weatherlink.com 1.10,2013-02-07 04:55:00,
2013-02-07 05:10:00,37.3,34.0,30.05,West,278,2.0,-999.0,86,-99.99,,,0.00,0,weatherlink.com 1.10,2013-02-07 05:10:00,
2013-02-07 05:25:00,37.3,34.0,30.05,WNW,285,5.0,-999.0,87,-99.99,,,0.00,0,weatherlink.com 1.10,2013-02-07 05:25:00,
2013-02-07 05:40:00,37.2,33.0,30.05,SW,236,0.0,-999.0,86,-99.99,,,0.00,0,weatherlink.com 1.10,2013-02-07 05:40:00,
2013-02-07 05:55:00,37.0,33.0,30.05,West,263,2.0,-999.0,86,-99.99,,,0.00,0,weatherlink.com 1.10,2013-02-07 05:55:00,
2013-02-07 06:10:00,36.8,33.0,30.04,SSW,202,2.0,-999.0,87,-99.99,,,0.00,0,weatherlink.com 1.10,2013-02-07 06:10:00,
2013-02-07 06:25:00,36.4,33.0,30.04,SSW,202,0.0,-999.0,87,-99.99,,,0.00,0,weatherlink.com 1.10,2013-02-07 06:25:00,
2013-02-07 06:40:00,36.2,33.0,30.03,SW,225,4.0,-999.0,88,-99.99,,,0.00,0,weatherlink.com 1.10,2013-02-07 06:40:00,
2013-02-07 06:55:00,36.6,34.0,30.03,WNW,292,5.0,-999.0,89,-99.99,,,0.00,0,weatherlink.com 1.10,2013-02-07 06:55:00,
2013-02-07 07:10:00,37.1,34.0,30.03,WNW,286,6.0,-999.0,88,-99.99,,,0.00,0,weatherlink.com 1.10,2013-02-07 07:10:00,
2013-02-07 07:26:00,37.1,34.0,30.03,West,279,6.0,-999.0,88,-99.99,,,0.00,0,weatherlink.com 1.10,2013-02-07 07:26:00,
2013-02-07 07:40:00,37.0,34.0,30.02,WNW,300,2.0,-999.0,88,-99.99,,,0.00,0,weatherlink.com 1.10,2013-02-07 07:40:00,
2013-02-07 07:56:00,36.9,34.0,30.02,WNW,284,4.0,-999.0,89,-99.99,,,0.00,0,weatherlink.com 1.10,2013-02-07 07:56:00,
2013-02-07 08:10:00,36.9,34.0,30.02,WNW,288,0.0,-999.0,89,-99.99,,,0.00,5,weatherlink.com 1.10,2013-02-07 08:10:00,
2013-02-07 08:25:00,37.0,34.0,30.02,WNW,288,0.0,-999.0,89,-99.99,,,0.00,16,weatherlink.com 1.10,2013-02-07 08:25:00,
2013-02-07 08:40:00,37.0,34.0,30.01,WNW,288,0.0,-999.0,89,-99.99,,,0.00,19,weatherlink.com 1.10,2013-02-07 08:40:00,
2013-02-07 08:55:00,36.7,34.0,30.01,West,274,0.0,-999.0,90,-99.99,,,0.00,30,weatherlink.com 1.10,2013-02-07 08:55:00,
2013-02-07 09:10:00,36.9,34.0,30.01,West,274,0.0,-999.0,90,-99.99,,,0.00,35,weatherlink.com 1.10,2013-02-07 09:10:00,
2013-02-07 09:25:00,37.1,35.0,30.00,West,278,0.0,-999.0,91,-99.99,,,0.00,40,weatherlink.com 1.10,2013-02-07 09:25:00,
2013-02-07 09:41:00,37.4,35.0,30.00,West,278,0.0,-999.0,91,-99.99,,,0.00,60,weatherlink.com 1.10,2013-02-07 09:41:00,
2013-02-07 09:56:00,37.7,35.0,30.00,SE,127,4.0,-999.0,90,-99.99,,,0.00,88,weatherlink.com 1.10,2013-02-07 09:56:00,
2013-02-07 10:11:00,38.1,36.0,29.99,SE,129,0.0,-999.0,90,-99.99,,,0.00,118,weatherlink.com 1.10,2013-02-07 10:11:00,
2013-02-07 10:26:00,38.9,36.0,29.99,SE,129,0.0,-999.0,90,-99.99,,,0.00,111,weatherlink.com 1.10,2013-02-07 10:26:00,
2013-02-07 10:41:00,39.5,37.0,29.99,SE,129,1.0,-999.0,89,-99.99,,,0.00,109,weatherlink.com 1.10,2013-02-07 10:41:00,
2013-02-07 10:56:00,40.0,37.0,29.98,SE,129,1.0,-999.0,88,-99.99,,,0.00,162,weatherlink.com 1.10,2013-02-07 10:56:00,
2013-02-07 11:11:00,40.6,37.0,29.98,SE,129,0.0,-999.0,86,-99.99,,,0.00,130,weatherlink.com 1.10,2013-02-07 11:11:00,
2013-02-07 11:26:00,40.9,37.0,29.98,SE,130,0.0,-999.0,86,-99.99,,,0.00,120,weatherlink.com 1.10,2013-02-07 11:26:00,
2013-02-07 11:41:00,41.0,37.0,29.98,SE,129,0.0,-999.0,85,-99.99,,,0.00,98,weatherlink.com 1.10,2013-02-07 11:41:00,
2013-02-07 11:56:00,41.0,37.0,29.97,SE,130,0.0,-999.0,85,-99.99,,,0.00,97,weatherlink.com 1.10,2013-02-07 11:56:00,
2013-02-07 12:11:00,41.1,37.0,29.97,SE,129,0.0,-999.0,86,-99.99,,,0.00,102,weatherlink.com 1.10,2013-02-07 12:11:00,
2013-02-07 12:26:00,41.0,37.0,29.97,SE,129,0.0,-999.0,85,-99.99,,,0.00,116,weatherlink.com 1.10,2013-02-07 12:26:00,
2013-02-07 12:41:00,41.4,37.0,29.97,SE,130,4.0,-999.0,85,-99.99,,,0.00,97,weatherlink.com 1.10,2013-02-07 12:41:00,
2013-02-07 12:56:00,41.7,37.0,29.97,WNW,301,3.0,-999.0,84,-99.99,,,0.00,98,weatherlink.com 1.10,2013-02-07 12:56:00,
2013-02-07 13:11:00,41.9,37.0,29.97,WNW,301,2.0,-999.0,82,-99.99,,,0.00,118,weatherlink.com 1.10,2013-02-07 13:11:00,
2013-02-07 13:26:00,42.1,37.0,29.96,NW,316,3.0,-999.0,81,-99.99,,,0.00,109,weatherlink.com 1.10,2013-02-07 13:26:00,
2013-02-07 13:41:00,42.1,36.0,29.96,NW,305,0.0,-999.0,79,-99.99,,,0.00,127,weatherlink.com 1.10,2013-02-07 13:41:00,
2013-02-07 13:56:00,42.5,37.0,29.96,WNW,297,5.0,-999.0,80,-99.99,,,0.00,151,weatherlink.com 1.10,2013-02-07 13:56:00,
2013-02-07 14:11:00,42.3,36.0,29.96,WNW,303,4.0,-999.0,78,-99.99,,,0.00,90,weatherlink.com 1.10,2013-02-07 14:11:00,
2013-02-07 14:26:00,42.3,37.0,29.96,WNW,300,4.0,-999.0,80,-99.99,,,0.00,142,weatherlink.com 1.10,2013-02-07 14:26:00,
2013-02-07 14:41:00,42.5,36.0,29.96,WNW,300,3.0,-999.0,79,-99.99,,,0.00,109,weatherlink.com 1.10,2013-02-07 14:41:00,
2013-02-07 14:56:00,42.4,36.0,29.96,WNW,298,3.0,-999.0,79,-99.99,,,0.00,91,weatherlink.com 1.10,2013-02-07 14:56:00,
2013-02-07 15:11:00,41.9,36.0,29.97,WNW,300,4.0,-999.0,80,-99.99,,,0.00,70,weatherlink.com 1.10,2013-02-07 15:11:00,
2013-02-07 15:26:00,41.5,36.0,29.97,WNW,286,5.0,-999.0,81,-99.99,,,0.00,72,weatherlink.com 1.10,2013-02-07 15:26:00,
2013-02-07 15:41:00,41.1,36.0,29.98,WNW,286,4.0,-999.0,82,-99.99,,,0.00,56,weatherlink.com 1.10,2013-02-07 15:41:00,
2013-02-07 15:56:00,40.9,36.0,29.98,WNW,286,6.0,-999.0,83,-99.99,,,0.00,40,weatherlink.com 1.10,2013-02-07 15:56:00,
2013-02-07 16:12:00,40.7,36.0,29.99,WNW,285,3.0,-999.0,83,-99.99,,,0.00,19,weatherlink.com 1.10,2013-02-07 16:12:00,
2013-02-07 16:26:00,40.4,36.0,30.00,WNW,286,4.0,-999.0,84,-99.99,,,0.00,11,weatherlink.com 1.10,2013-02-07 16:26:00,
2013-02-07 16:42:00,40.2,36.0,30.00,NW,305,2.0,-999.0,85,-99.99,,,0.00,7,weatherlink.com 1.10,2013-02-07 16:42:00,
2013-02-07 16:56:00,39.9,36.0,30.00,NW,305,1.0,-999.0,86,-99.99,,,0.00,0,weatherlink.com 1.10,2013-02-07 16:56:00,
2013-02-07 17:12:00,39.6,36.0,30.00,NW,311,2.0,-999.0,86,-99.99,,,0.00,0,weatherlink.com 1.10,2013-02-07 17:12:00,
2013-02-07 17:26:00,39.1,36.0,30.00,WNW,300,0.0,-999.0,87,-99.99,,,0.00,0,weatherlink.com 1.10,2013-02-07 17:26:00,
2013-02-07 17:41:00,38.9,35.0,30.00,WNW,300,0.0,-999.0,87,-99.99,,,0.00,0,weatherlink.com 1.10,2013-02-07 17:41:00,
2013-02-07 17:56:00,38.7,36.0,30.00,WNW,300,0.0,-999.0,88,-99.99,,,0.00,0,weatherlink.com 1.10,2013-02-07 17:56:00,
2013-02-07 18:11:00,38.6,35.0,30.00,WNW,300,1.0,-999.0,88,-99.99,,,0.00,0,weatherlink.com 1.10,2013-02-07 18:11:00,
2013-02-07 18:26:00,38.6,36.0,30.00,NW,304,8.0,-999.0,89,-99.99,,,0.00,0,weatherlink.com 1.10,2013-02-07 18:26:00,
2013-02-07 18:41:00,38.7,36.0,30.00,WNW,286,7.0,-999.0,88,-99.99,,,0.00,0,weatherlink.com 1.10,2013-02-07 18:41:00,
2013-02-07 18:56:00,38.7,36.0,30.01,WNW,283,0.0,-999.0,88,-99.99,,,0.00,0,weatherlink.com 1.10,2013-02-07 18:56:00,
2013-02-07 19:11:00,38.9,36.0,30.01,SE,134,0.0,-999.0,88,-99.99,,,0.00,0,weatherlink.com 1.10,2013-02-07 19:11:00,
2013-02-07 19:26:00,38.8,36.0,30.02,SE,134,0.0,-999.0,88,-99.99,,,0.00,0,weatherlink.com 1.10,2013-02-07 19:26:00,
2013-02-07 19:41:00,38.7,36.0,30.02,SW,234,4.0,-999.0,88,-99.99,,,0.00,0,weatherlink.com 1.10,2013-02-07 19:41:00,
2013-02-07 19:56:00,38.5,36.0,30.02,West,268,2.0,-999.0,89,-99.99,,,0.00,0,weatherlink.com 1.10,2013-02-07 19:56:00,
2013-02-07 20:11:00,38.3,36.0,30.02,West,267,0.0,-999.0,90,-99.99,,,0.00,0,weatherlink.com 1.10,2013-02-07 20:11:00,
2013-02-07 20:26:00,38.3,36.0,30.03,West,267,1.0,-999.0,91,-99.99,,,0.00,0,weatherlink.com 1.10,2013-02-07 20:26:00,
2013-02-07 20:41:00,38.5,36.0,30.03,West,262,5.0,-999.0,90,-99.99,,,0.00,0,weatherlink.com 1.10,2013-02-07 20:41:00,
2013-02-07 20:57:00,38.7,36.0,30.03,SSE,147,7.0,-999.0,89,-99.99,,,0.00,0,weatherlink.com 1.10,2013-02-07 20:57:00,
2013-02-07 21:12:00,38.6,36.0,30.04,ESE,118,1.0,-999.0,90,-99.99,,,0.00,0,weatherlink.com 1.10,2013-02-07 21:12:00,
2013-02-07 21:26:00,38.5,36.0,30.04,ESE,118,0.0,-999.0,90,-99.99,,,0.00,0,weatherlink.com 1.10,2013-02-07 21:26:00,
2013-02-07 21:42:00,38.3,36.0,30.03,ESE,118,0.0,-999.0,91,-99.99,,,0.00,0,weatherlink.com 1.10,2013-02-07 21:42:00,
2013-02-07 21:57:00,38.1,36.0,30.04,ESE,118,0.0,-999.0,91,-99.99,,,0.00,0,weatherlink.com 1.10,2013-02-07 21:57:00,
2013-02-07 22:12:00,38.1,36.0,30.03,ESE,118,0.0,-999.0,92,-99.99,,,0.00,0,weatherlink.com 1.10,2013-02-07 22:12:00,
2013-02-07 22:26:00,38.1,36.0,30.04,ESE,118,0.0,-999.0,92,-99.99,,,0.00,0,weatherlink.com 1.10,2013-02-07 22:26:00,
2013-02-07 22:41:00,37.9,36.0,30.03,ESE,118,0.0,-999.0,93,-99.99,,,0.00,0,weatherlink.com 1.10,2013-02-07 22:41:00,
2013-02-07 22:56:00,37.9,36.0,30.04,ESE,118,1.0,-999.0,93,-99.99,,,0.00,0,weatherlink.com 1.10,2013-02-07 22:56:00,
2013-02-07 23:12:00,37.7,36.0,30.04,ESE,118,1.0,-999.0,93,-99.99,,,0.00,0,weatherlink.com 1.10,2013-02-07 23:12:00,
2013-02-07 23:26:00,37.5,36.0,30.04,ESE,118,0.0,-999.0,93,-99.99,,,0.00,0,weatherlink.com 1.10,2013-02-07 23:26:00,
2013-02-07 23:41:00,37.1,35.0,30.04,ESE,118,0.0,-999.0,93,-99.99,,,0.00,0,weatherlink.com 1.10,2013-02-07 23:41:00,
2013-02-07 23:57:00,37.0,36.0,30.05,ESE,118,4.0,-999.0,94,-99.99,,,0.00,0,weatherlink.com 1.10,2013-02-07 23:57:00,